Regional Weather Roundup
Issued by NWS

Home | Current Version | Previous Version | Graphics & Text | Print | Product List | Glossary On
Versions: 1 2 3 4 5 6 7 8 9 10 11 12 13 14 15 16 17 18 19 20 21 22 23 24 25 26 27 28 29 30 31 32 33 34 35 36 37 38 39 40 41 42 43 44 45 46 47 48 49 50
000
ASUS45 KBOU 061107
RWRCO

WEATHER ROUNDUP FOR COLORADO
NATIONAL WEATHER SERVICE DENVER/BOULDER CO
400 AM MST FRI MAR 06 2015

NOTE: "FAIR" INDICATES FEW OR NO CLOUDS BELOW 12000 FEET WITH NO
SIGNIFICANT WEATHER AND/OR OBSTRUCTIONS TO VISIBILITY.

COZ001>005-013-030-031-061200-
...NORTHWEST COLORADO...

CITY           SKY/WX    TMP DP  RH WIND       PRES   REMARKS
CRAIG          PTCLDY    11   7  84 CALM      30.41S
HAYDEN         PTCLDY    16   7  67 E14       30.39S WCI   1
MEEKER         CLEAR     21  13  71 E5        30.41S WCI  15
MOUNT WERNER   NOT AVBL
STEAMBOAT SPGS PTCLDY     8   5  89 CALM      30.40S
WALDEN         PTCLDY    21  10  63 SW10      30.32S WCI  10
$$

COZ006>008-011-061200-
...WEST CENTRAL VALLEYS...

CITY           SKY/WX    TMP DP  RH WIND       PRES   REMARKS
GRAND JUNCTION CLEAR     24  18  77 CALM      30.42S
MONTROSE       CLEAR     24  14  65 SE9       30.43F WCI  14
EAGLE          PTCLDY    18  12  79 CALM      30.46R
RIFLE          CLEAR     22  16  78 CALM      30.45R
DELTA          CLEAR     27  19  73 E6        30.44S WCI  20
NUCLA          CLEAR     23  14  68 E3        30.43S
$$

COZ017>023-064>068-061200-
...SOUTHWEST COLORADO...

CITY           SKY/WX    TMP DP  RH WIND       PRES   REMARKS
DURANGO        PTCLDY    18  13  80 CALM      30.35F
CORTEZ         CLEAR     20  16  84 CALM      30.37F
PAGOSA SPRINGS PTCLDY     8   7  94 CALM      30.36S
TELLURIDE      PTCLDY    19   5  54 SE8       30.38F WCI   9
WOLF CREEK PAS PTCLDY    19  -4  35 W6        30.40S WCI  11
$$

COZ009-010-012-014-032>034-037-058>063-061200-
...CENTRAL COLORADO...

CITY           SKY/WX    TMP DP  RH WIND       PRES   REMARKS
ASPEN          PTCLDY    10   3  73 SW7       30.39S WCI  -1
BUENA VISTA    PTCLDY    19   4  51 NW3       30.34S
COPPER MTN     MOCLDY    18   0  45 W20       30.32R WCI   1
BERTHOUD PASS  NOT AVBL
COTTONWOOD PAS PTCLDY    28  -8  20 NW9       30.31S WCI  20
GUNNISON       PTCLDY     1   0  92 CALM      30.47R
KREMMLING      PTCLDY     7   3  85 CALM      30.42S
LEADVILLE      PTCLDY     1  -8  66 NE7       30.33S WCI -12
SALIDA         PTCLDY    24   6  46 NW14      30.40S WCI  12
SUNLIGHT       PTCLDY    19  12  73 CALM        N/A
WILKERSON PASS PTCLDY    18  -6  35 NW12G20   30.31S WCI   5
$$

COZ069>075-061200-
...SAN LUIS VALLEY/SANGRE DE CRISTO MOUNTAINS...

CITY           SKY/WX    TMP DP  RH WIND       PRES   REMARKS
ALAMOSA        PTCLDY    14   9  80 SW5       30.38S WCI   6
LA VETA PASS   PTCLDY    19   1  45 MISG      30.30S
SAGUACHE       MOCLDY    21   9  58 NW17      30.38S WCI   7
$$

COZ035-036-038>040-061200-
...NORTHERN COLORADO FRONT RANGE...

CITY           SKY/WX    TMP DP  RH WIND       PRES   REMARKS
DENVER INTL AP CLEAR     25  12  58 SW9       30.23R WCI  15
DMNS CITY PARK   N/A     25  13  59 SE6       30.24R WCI  18
AURORA         PTCLDY    28   8  43 S10       30.23S WCI  19
FRONT RANGE AP CLEAR     27  14  59 S9        30.23S WCI  17
ERIE MUNI ARPT PTCLDY    16  11  80 CALM      30.24S
BOULDER MUN AP PTCLDY    23  16  74 CALM      30.23S
CENTENNIAL     PTCLDY    23   9  55 SE3       30.22F
BROOMFIELD     PTCLDY    30  10  43 CALM      30.23S
FORT COLLINS   PTCLDY    19  10  68 CALM      30.25S
LONGMONT       PTCLDY    18  11  71 W6        30.26R WCI  10
$$

COZ041-046-047-076>085-087-088-061200-
...PIKES PEAK/PALMER DIVIDE AND SOUTHERN FOOTHILLS...

CITY           SKY/WX    TMP DP  RH WIND       PRES   REMARKS
COLO. SPRINGS  PTCLDY    24  10  55 N8        30.25S WCI  15
A. F. ACADEMY  CLEAR     20   5  52 N7        30.24S WCI  11
ELLICOTT       NOT AVBL
FALCON         CLEAR     20   7  56 NW8       30.25S WCI  10
FORT CARSON    CLEAR     23  12  63 NW10      30.23S WCI  12
LIMON          PTCLDY     6   1  80 N7        30.25S WCI  -6
MONUMENT HILL  CLEAR     28   3  34 SW12      30.23S WCI  18
TRINIDAD       CLEAR     26  16  65 W10       30.27F WCI  16
$$

COZ042>045-048>051-090-091-061200-
...NORTHEAST COLORADO...

CITY           SKY/WX    TMP DP  RH WIND       PRES   REMARKS
GREELEY ARPT   PTCLDY    23  16  74 CALM      30.23S
AKRON          CLEAR     24  17  74 W13       30.23R WCI  12
BURLINGTON     CLEAR     26  19  74 W9        30.24F WCI  17
WRAY           CLEAR     23  19  85 W6        30.25R WCI  16
STERLING       CLEAR     19  18  93 S5        30.24S WCI  13
HOLYOKE        CLEAR     28  21  74 W14       30.23S WCI  17
FORT MORGAN    CLEAR     20  17  86 W10       30.24S WCI   9
$$

COZ086-089-092>099-061200-
...SOUTHEAST COLORADO...

CITY           SKY/WX    TMP DP  RH WIND       PRES   REMARKS
PUEBLO         CLEAR     21  18  88 W3        30.27S
LA JUNTA       CLEAR     26  21  81 SW7       30.29R WCI  18
LAMAR          CLEAR     24  21  88 SW8       30.27S WCI  15
SPRINGFIELD      N/A     25  21  85 W3        30.27R
$$



USA.gov is the U.S. government's official web portal to all federal, state and local government web resources and services.